Volver al catálogo

BREEZE-M DEB

TANK

ActivoHEO
NORAD 39524·DEBRIS·🇷🇺 Russia

Lanzado Feb 14, 2014 desde Baikonur Cosmodrome

Loading…

Próximos Pases (próximas 24 horas)

TLE

ActualizadoSource: Space-Track

Época: Sep 14, 2026, 04:52 UTC

1 39524U 14007C   26257.20311219  .00011279  00000-0  67303-3 0  9998
2 39524  49.2826 254.4851 5913434 241.3866  47.5590  4.22627029176383

Sigue BREEZE-M DEB en tiempo real con AllMySat

Download on the App Store